Regional Weather Roundup
Issued by NWS Cleveland, OH

Home | Current Version | Previous Version | Text Only | Print | Product List | Glossary Off
Versions: 1 2 3 4 5 6 7 8 9 10 11 12 13 14 15 16 17 18 19 20 21 22 23 24 25 26 27 28 29 30 31 32 33 34 35 36 37 38 39 40 41 42 43 44 45 46 47 48 49 50

000
ASUS41 KCLE 230500
RWRCLE
OHIO REGIONAL WEATHER ROUNDUP
NATIONAL WEATHER SERVICE WILMINGTON, OH
1200 AM EST FRI FEB 23 2018

NOTE: "FAIR" INDICATES FEW OR NO CLOUDS BELOW 12,000 FEET WITH NO
SIGNIFICANT WEATHER AND/OR OBSTRUCTIONS TO VISIBILITY.

OHZ001>008-015>018-024>027-034-035-043-044-230600-
   NORTHWEST OHIO

CITY           SKY/WX    TMP DP  RH WIND       PRES   REMARKS
DEFIANCE       CLOUDY    35  31  85 E17       30.40F WCI  25
FINDLAY        CLOUDY    36  32  85 E9        30.40F FOG
TOLEDO EXPRESS CLOUDY    35  33  92 E14       30.42F WCI  26
TOLEDO EXEC    CLOUDY    35  31  85 E12G18    30.44F WCI  27
LIMA           CLOUDY    35  35 100 E10       30.37F FOG     WCI  27
$$

OHZ009>014-019>023-028>033-038-089-230600-
   NORTHEAST OHIO

CITY           SKY/WX    TMP DP  RH WIND       PRES   REMARKS
CLE-HOPKINS    CLOUDY    37  34  89 N6        30.45S
CLE-LAKEFRONT  CLOUDY    36  33  89 NE9       30.43S
CUY CO. ARPT   NOT AVBL
LORAIN-ELYRIA  CLOUDY    35  30  82 NE12      30.43S HAZE    WCI  27
ASHTABULA      CLOUDY    37  36  96 NE3       30.44F
AKRON-CANTON   CLOUDY    42  37  82 SE12      30.40F
WOOSTER        NOT AVBL
MANSFIELD      CLOUDY    37  37 100 CALM      30.41R FOG
YOUNGSTOWN     CLOUDY    41  37  86 E13       30.40F
$$

OHZ042-051>053-060>062-070>072-077>081-230600-
  SOUTHWEST OHIO

CITY           SKY/WX    TMP DP  RH WIND       PRES   REMARKS
CINC-COVINGTON DRIZZLE   45  45 100 SE8       30.35F FOG
CINC-LUNKEN    CLOUDY    46  46 100 CALM      30.38S
HAMILTON       CLOUDY    46  45  96 CALM      30.37F
DAYTON         NOT AVBL
WRIGHT-PAT AFB CLOUDY    45  41  87 E5        30.37F FOG
DAYTON GENERAL CLOUDY    45  43  93 E6        30.35F FOG
WILMINGTON     CLOUDY    43  43 100 E8        30.36F FOG
$$

OHZ036-037-039>041-045>050-054>059-063>069-073>076-082>088-230600-
  CENTRAL AND SOUTHEAST OHIO

CITY           SKY/WX    TMP DP  RH WIND       PRES   REMARKS
COLUMBUS       CLOUDY    43  41  93 E8        30.39F
OSU AIRPORT    CLOUDY    42  42 100 E7        30.39F FOG
BOLTON FIELD   CLOUDY    42  41  97 E7        30.39F FOG
RICKENBACK AFB NOT AVBL
NEWARK         CLOUDY    42  40  92 E6        30.40F FOG
MARION         CLOUDY    38  36  92 NE6       30.40F FOG
LANCASTER      CLOUDY    42  42 100 E6        30.39F
ZANESVILLE     CLOUDY    42  39  89 E3        30.41F
NEW PHILLY     CLOUDY    41  39  93 SE6       30.42F
$$




USA.gov is the U.S. government's official web portal to all federal, state and local government web resources and services.